Location: *
(33.3200°N, 8.3381°W)
Time: 13:04:01
(UTC+00:00)

SJ-11-01 - Pass Details

Date: 09 April 2020
Orbit: 683 x 702 km, 98.0° (Epoch: 05 June)

Event Time Altitude Azimuth Distance (km) Brightness Sun altitude
Rises 19:42:13 0° 159° (SSE) 3,048 7.2 -9.4°
Reaches altitude 10° 19:44:28 10° 155° (SSE) 2,138 6.4 -9.9°
Maximum altitude 19:49:05 63° 75° (ENE) 777 4.3 -10.8°
Drops below altitude 10° 19:53:46 10° 355° (N) 2,162 7.1 -11.7°
Sets 19:56:03 0° 352° (N) 3,086 8.0 -12.2°
